User: anonymous   Login
Location: Gairloch Mountain Observatory
(46.1383°N, 60.9640°W)
Time: 12:14:43
(UTC-04:00)
Language:

CENTAUR R/B - Orbit

View from above orbital plane
View from above orbital plane
View from above satellite
View from above satellite

Ground track
Ground track

The orbit data is extracted from the following two-line orbital elements,

1 26906U 01040B   17020.76934222 0.00000030  00000-0  36646-4 0    08
2 26906  63.4525 351.2127 0339000 342.3123  17.6877 13.44003540    04
Epoch (UTC): 20 January 2017 18:27:51
Eccentricity: 0.0339000
inclination: 63.4525°
perigee height: 841 km
apogee height: 1348 km
right ascension of ascending node: 351.2127°
argument of perigee: 342.3123°
revolutions per day: 13.44003540
mean anomaly at epoch: 17.6877°
orbit number at epoch: 0

The dashed part of the orbit path shows where the satellite is in the earth's shadow,  

DLR